Weather History for Concord, NC

Change the Weather History Date:

Saturday, December 29, 2012

  Actual Average (KCLT) Record (KCLT)
Temperature  
Mean Temperature 44 °F 40 °F  
Max Temperature 53 °F 51 °F 74 °F (1984)
Min Temperature 35 °F 30 °F 2 °F (1894)
Degree Days  
Heating Degree Days 21 25  
Month to date heating degree days 651  
Since 1 July heating degree days 1287  
Cooling Degree Days 0 0  
Month to date cooling degree days 0  
Year to date cooling degree days 1517  
Moisture  
Dew Point 32 °F    
Average Humidity 78    
Maximum Humidity 100    
Minimum Humidity 41    
Precipitation  
Precipitation 0.20 in 0.10 in 1.82 in (2013)
Month to date precipitation 3.05  
Year to date precipitation 41.43  
Snow  
Snow 0.00 in 0.00 in 11.00 in (1880)
Month to date snowfall 0.2  
Since 1 July snowfall 0.3  
Snow Depth -    
Sea Level Pressure  
Sea Level Pressure 29.90 in    
Wind  
Wind Speed 2 mph (WNW)    
Max Wind Speed 14 mph    
Max Gust Speed 21 mph    
Visibility 7 miles    
Events      
T = Trace of Precipitation, MM = Missing Value Source: NWS Daily Summary

Daily Weather History Graph

Daily Weather History Graph

Search for Another Location

Airport:

Trip Planner

Search our weather history database for the weather conditions in past years. The results will help you decide how hot, cold, wet, or windy it might be!

Date:

Astronomy

Dec. 29, 2012 Rise Set
Actual Time 7:31 AM EST 5:19 PM EST
Civil Twilight 7:03 AM EST 5:47 PM EST
Nautical Twilight 6:31 AM EST 6:19 PM EST
Astronomical Twilight 6:00 AM EST 6:50 PM EST
Moon 6:47 PM EST (12/29) 8:06 AM EST (12/29)
Length of Visible Light 10h 44m
Length of Day
9h 47m
Full, 98% of the Moon is Illuminated
Dec 29
Full
Jan 4
Last Quarter
Jan 11
New
Jan 18
First Quarter
Jan 26
Full

Hourly Weather History & Observations

Time (EST) Temp. Windchill Dew Point Humidity Pressure Visibility Wind Dir Wind Speed Gust Speed Precip Events Conditions
12:15 AM 37.4 °F - 32.0 °F 81% 30.00 in 10.0 mi Calm Calm - N/A   Overcast
12:35 AM 37.4 °F - 32.0 °F 81% 29.99 in 10.0 mi Calm Calm - N/A   Overcast
12:55 AM 37.4 °F - 32.0 °F 81% 30.01 in 10.0 mi Calm Calm - N/A   Overcast
1:15 AM 37.4 °F - 32.0 °F 81% 29.97 in 10.0 mi Calm Calm - N/A   Overcast
1:35 AM 37.4 °F - 32.0 °F 81% 29.98 in 10.0 mi Calm Calm - N/A   Overcast
1:55 AM 37.4 °F - 32.0 °F 81% 29.96 in 10.0 mi Calm Calm - N/A   Overcast
2:15 AM 37.4 °F - 32.0 °F 81% 29.96 in 10.0 mi Calm Calm - N/A   Overcast
2:35 AM 37.4 °F - 33.8 °F 87% 29.95 in 7.0 mi Calm Calm - N/A   Overcast
2:55 AM 37.4 °F - 33.8 °F 87% 29.94 in 7.0 mi Calm Calm - N/A   Overcast
3:15 AM 37.4 °F - 33.8 °F 87% 29.93 in 2.5 mi Calm Calm - 0.02 in   Overcast
3:35 AM 37.4 °F - 33.8 °F 87% 29.92 in 4.0 mi Calm Calm - 0.06 in   Overcast
3:55 AM 35.6 °F - 33.8 °F 93% 29.90 in 4.0 mi Calm Calm - 0.09 in   Overcast
4:15 AM 35.6 °F - 33.8 °F 93% 29.88 in 4.0 mi Calm Calm - 0.02 in   Overcast
4:35 AM 35.6 °F - 33.8 °F 93% 29.87 in 2.0 mi Calm Calm - 0.07 in   Overcast
4:55 AM 35.6 °F 32.8 °F 33.8 °F 93% 29.81 in 3.0 mi ESE 3.5 mph - 0.11 in   Overcast
5:15 AM 35.6 °F - 35.6 °F 100% 29.81 in 5.0 mi Calm Calm - N/A   Overcast
5:35 AM 35.6 °F - 35.6 °F 100% 29.81 in 5.0 mi Calm Calm - N/A   Overcast
5:55 AM 37.4 °F - 35.6 °F 93% 29.79 in 2.5 mi Calm Calm - N/A   Overcast
6:15 AM 37.4 °F - 35.6 °F 93% 29.79 in 5.0 mi Calm Calm - N/A   Overcast
6:35 AM 37.4 °F - 35.6 °F 93% 29.79 in 5.0 mi Calm Calm - N/A   Overcast
6:55 AM 37.4 °F - 35.6 °F 93% 29.79 in 2.0 mi Calm Calm - N/A   Overcast
7:55 AM 37.4 °F 32.8 °F 37.4 °F 100% 29.83 in 2.0 mi NW 5.8 mph - N/A   Overcast
8:55 AM 39.2 °F - 37.4 °F 93% 29.82 in 2.0 mi Calm Calm - N/A   Overcast
9:55 AM 39.2 °F 37.0 °F 37.4 °F 93% 29.81 in 2.0 mi West 3.5 mph - N/A   Overcast
10:55 AM 42.8 °F 39.3 °F 39.2 °F 87% 29.81 in 4.0 mi West 5.8 mph - N/A   Overcast
11:55 AM 42.8 °F 37.5 °F 39.2 °F 87% 29.79 in 5.0 mi West 9.2 mph - N/A   Overcast
12:55 PM 44.6 °F 39.2 °F 39.2 °F 81% 29.77 in 10.0 mi WSW 10.4 mph 16.1 mph N/A   Scattered Clouds
1:55 PM 50.0 °F - 39.2 °F 66% 29.75 in 10.0 mi West 12.7 mph 17.3 mph N/A   Clear
3:55 PM 53.6 °F - 30.2 °F 41% 29.79 in 10.0 mi WNW 13.8 mph 20.7 mph N/A   Scattered Clouds
4:55 PM 50.0 °F - 30.2 °F 47% 29.82 in 10.0 mi WNW 12.7 mph 19.6 mph N/A   Clear
5:55 PM 48.2 °F - 30.2 °F 50% 29.84 in 10.0 mi WNW 8.1 mph 18.4 mph N/A   Mostly Cloudy
7:55 PM 42.8 °F 37.5 °F 28.4 °F 57% 29.92 in 10.0 mi NW 9.2 mph - N/A   Overcast
8:15 PM 41.0 °F 34.7 °F 28.4 °F 61% 29.94 in 10.0 mi WNW 10.4 mph 18.4 mph N/A   Scattered Clouds
8:35 PM 41.0 °F 37.1 °F 28.4 °F 61% 29.94 in 10.0 mi WNW 5.8 mph - N/A   Clear
8:55 PM 41.0 °F 34.7 °F 28.4 °F 61% 29.96 in 10.0 mi WNW 10.4 mph 16.1 mph N/A   Clear
9:15 PM 39.2 °F 33.6 °F 28.4 °F 65% 29.97 in 10.0 mi WNW 8.1 mph - N/A   Clear
9:35 PM 39.2 °F 35.0 °F 28.4 °F 65% 29.98 in 10.0 mi NW 5.8 mph - N/A   Clear
9:55 PM 39.2 °F 34.2 °F 26.6 °F 61% 29.99 in 10.0 mi NW 6.9 mph - N/A   Clear
10:15 PM 37.4 °F 32.8 °F 26.6 °F 65% 30.00 in 10.0 mi NW 5.8 mph - N/A   Clear
10:35 PM 37.4 °F 31.4 °F 26.6 °F 65% 30.02 in 10.0 mi NW 8.1 mph - N/A   Clear
10:55 PM 37.4 °F 32.1 °F 26.6 °F 65% 30.03 in 10.0 mi NW 6.9 mph - N/A   Clear
11:15 PM 37.4 °F 33.8 °F 26.6 °F 65% 30.03 in 10.0 mi NNW 4.6 mph - N/A   Clear
11:35 PM 37.4 °F 33.8 °F 26.6 °F 65% 30.05 in 10.0 mi NNW 4.6 mph - N/A   Clear
11:55 PM 37.4 °F 29.8 °F 24.8 °F 60% 30.06 in 10.0 mi WNW 11.5 mph 19.6 mph N/A   Clear